Flag for U.S.A. Weather past 2 weeks in Cape Coral, Florida, U.S.A.

Now
56 °F

Clear.


Feels Like: 55 °F
Forecast: 56 / 75 °F
Wind: 6 mph from East

Location: Page Field

Current Time: Feb 1, 2015 at 1:40:14 AM

Latest Report: Feb 1, 2015 at 12:53 AM


Visibility: 10 mi

Pressure: 30.22 "Hg

Humidity: 81%

Dew point: 50 °F

Location of Cape CoralLocation

Historic Weather in Cape Coral — Graph

°F

Cape Coral temperature yesterday

Maximum temperature yesterday: 75 °F (at 1:53 PM)
Minimum temperature yesterday: 48 °F (at 6:53 AM)
Average temperature yesterday: 62 °F

Past Weeks' High & Low Weather Summary

 TemperatureHumidityPressure
High82 °F (Jan 21, 4:53 PM)97% (Jan 18, 2:53 AM)30.30 "Hg (Jan 18, 2:53 AM)
Low46 °F (Jan 29, 6:53 AM)27% (Jan 28, 4:53 PM)29.82 "Hg (Jan 24, 3:53 AM)
Average63 °F71%30.09 "Hg
* Reported Jan 16 11:53 PM — Jan 31 11:53 PM, Cape Coral, Weather by CustomWeather, © 2014

Note: Actual official high and low records may vary slightly from our data, if they occured in-between our weather recording intervals... More about our weather records

Advertising

Cape Coral weather history for previous 24 hours

 ConditionsComfort  
Time TempWeatherWind HumidityBarometerVisibility
11:53 PM
Jan 31
57 °FClear.6 mph81%30.23 "Hg10 mi
10:53 PM59 °FClear.7 mph75%30.24 "Hg10 mi
9:53 PM60 °FClear.7 mph72%30.24 "Hg10 mi
8:53 PM62 °FClear.7 mph65%30.24 "Hg10 mi
7:53 PM64 °FClear.9 mph58%30.23 "Hg10 mi
6:53 PM66 °FClear.8 mph52%30.22 "Hg10 mi
5:53 PM69 °FSunny.12 mph49%30.20 "Hg10 mi
4:53 PM72 °FSunny.14 mph44%30.19 "Hg10 mi
3:53 PM74 °FPassing clouds.12 mph40%30.18 "Hg10 mi
2:53 PM75 °FPassing clouds.8 mph39%30.19 "Hg10 mi
1:53 PM75 °FScattered clouds.10 mph42%30.19 "Hg10 mi
12:53 PM73 °FSunny.10 mph44%30.22 "Hg10 mi
11:53 AM71 °FSunny.14 mph49%30.24 "Hg10 mi
10:53 AM67 °FSunny.13 mph55%30.26 "Hg10 mi
9:53 AM61 °FSunny.9 mph60%30.26 "Hg10 mi
8:53 AM56 °FSunny.12 mph67%30.24 "Hg10 mi
7:53 AM50 °FSunny.5 mph83%30.23 "Hg10 mi
6:53 AM48 °FClear.8 mph86%30.22 "Hg10 mi
5:53 AM50 °FClear.8 mph83%30.21 "Hg10 mi
4:53 AM52 °FClear.9 mph80%30.19 "Hg10 mi
3:53 AM54 °FClear.8 mph80%30.19 "Hg10 mi
2:53 AM54 °FClear.9 mph90%30.19 "Hg10 mi
1:53 AM56 °FClear.7 mph87%30.20 "Hg10 mi
Weather by CustomWeather, © 2014

See weather overviewHow to use our weather pages